Location: Ergnies
(50.0854°N, 2.0375°E)
Time: 20:49:03
(UTC+00:00)

Timation 1 Rocket - Pass Details

Date: 14 January 2026
Orbit: 895 x 908 km, 70.0° (Epoch: 13 February)

Event Time Altitude Azimuth Distance (km) Brightness Sun altitude
Exits shadow 05:47:41 21° 322° (NW) 1,911 5.6 -18.2°
Maximum altitude 05:51:44 67° 244° (WSW) 980 4.3 -17.6°
Drops below altitude 10° 05:57:39 10° 163° (SSE) 2,585 7.1 -16.7°
Sets 06:00:10 0° 161° (SSE) 3,523 7.9 -16.3°
